Voltar ao catálogo

QIANFAN-233

AtivoComunicaçõesPO
NORAD 69862·PAYLOAD·🇨🇳 China

Lançado Jul 5, 2026 de Wenchang Space Launch Site

Loading…

Próximas Passagens (próximas 24 horas)

TLE

AtualizadoSource: Space-Track

Época: Sep 14, 2026, 11:56 UTC

1 69862U 26155Q   26257.49759072 -.01810935  00000-0 -28502+1 0  9991
2 69862  89.0076  54.2929 0035268  31.6617 328.6648 13.54054928  9931

Acompanhe QIANFAN-233 em tempo real com AllMySat

Download on the App Store